Weather History for Ozark, AL

Change the Weather History Date:

Saturday, December 28, 2013

  Actual Average Record
Temperature  
Mean Temperature 47 °F -  
Max Temperature 51 °F 58 °F 76 °F (2007)
Min Temperature 43 °F 37 °F 20 °F (2010)
Degree Days  
Heating Degree Days 18    
Moisture  
Dew Point 45 °F    
Average Humidity 91    
Maximum Humidity 100    
Minimum Humidity 59    
Precipitation  
Precipitation 2.22 in - - ()
Sea Level Pressure  
Sea Level Pressure 30.06 in    
Wind  
Wind Speed 9 mph (ENE)    
Max Wind Speed 15 mph    
Max Gust Speed 21 mph    
Visibility 7 miles    
Events Rain    
Averages and records for this station are not official NWS values.
T = Trace of Precipitation, MM = Missing Value Source: NWS Daily Summary

Daily Weather History Graph

Daily Weather History Graph

Search for Another Location

Airport:

Trip Planner

Search our weather history database for the weather conditions in past years. The results will help you decide how hot, cold, wet, or windy it might be!

Date:

Astronomy

Dec. 28, 2013 Rise Set
Actual Time 6:40 AM CST 4:48 PM CST
Civil Twilight 6:13 AM CST 5:15 PM CST
Nautical Twilight 5:43 AM CST 5:45 PM CST
Astronomical Twilight 5:14 AM CST 6:15 PM CST
Moon 2:25 AM CST (12/28) 1:31 PM CST (12/28)
Length of Visible Light 11h 01m
Length of Day
10h 08m
Waning Crescent, 19% of the Moon is Illuminated
Dec 28
Waning Crescent
Jan 1
New
Jan 7
First Quarter
Jan 15
Full
Jan 23
Last Quarter

Hourly Weather History & Observations

Time (CST) Temp. Windchill Dew Point Humidity Pressure Visibility Wind Dir Wind Speed Gust Speed Precip Events Conditions
12:58 AM 48.4 °F - 36.0 °F 62% 30.31 in 10.0 mi NE 5.8 mph - N/A   Overcast
1:58 AM 49.5 °F - 35.8 °F 59% 30.28 in 10.0 mi ENE 9.2 mph - N/A   Overcast
2:58 AM 48.9 °F - 36.5 °F 62% 30.26 in 10.0 mi NE 10.4 mph - N/A   Overcast
3:06 AM 48.2 °F - 37.4 °F 66% 30.25 in 10.0 mi NE 9.2 mph - N/A Rain Light Rain
3:18 AM 48.2 °F - 39.2 °F 71% 30.26 in 10.0 mi ENE 6.9 mph - N/A   Mostly Cloudy
3:50 AM 48.2 °F - 39.2 °F 71% 30.25 in 10.0 mi NE 10.4 mph - N/A   Light Drizzle
3:58 AM 47.7 °F - 38.5 °F 70% 30.25 in 10.0 mi NE 10.4 mph - 0.00 in   Light Drizzle
4:01 AM 48.2 °F - 39.2 °F 71% 30.24 in 10.0 mi ENE 8.1 mph - N/A   Overcast
4:35 AM 48.2 °F - 37.4 °F 66% 30.25 in 10.0 mi NE 6.9 mph - N/A Rain Light Rain
4:45 AM 46.4 °F 41.9 °F 39.2 °F 76% 30.25 in 4.0 mi NE 9.2 mph - N/A Rain Heavy Rain
4:55 AM 44.6 °F 40.7 °F 41.0 °F 87% 30.26 in 4.0 mi NE 6.9 mph - N/A Rain Rain
4:58 AM 45.5 °F 42.5 °F 40.3 °F 82% 30.27 in 4.0 mi NE 5.8 mph - 0.04 in Rain Rain
5:23 AM 44.6 °F 39.7 °F 41.0 °F 87% 30.25 in 4.0 mi NE 9.2 mph - N/A Rain Light Rain
5:40 AM 44.6 °F 39.2 °F 41.0 °F 87% 30.25 in 10.0 mi NE 10.4 mph - N/A   Mostly Cloudy
5:45 AM 44.6 °F 38.8 °F 41.0 °F 87% 30.25 in 10.0 mi NE 11.5 mph - N/A   Mostly Cloudy
5:58 AM 43.9 °F 38.3 °F 41.7 °F 92% 30.26 in 10.0 mi NE 10.4 mph - 0.13 in   Overcast
6:08 AM 44.6 °F 39.2 °F 41.0 °F 87% 30.24 in 10.0 mi NE 10.4 mph - N/A   Overcast
6:23 AM 44.6 °F 38.8 °F 41.0 °F 87% 30.25 in 10.0 mi NE 11.5 mph - N/A   Overcast
6:38 AM 44.6 °F 39.2 °F 41.0 °F 87% 30.24 in 10.0 mi NE 10.4 mph - N/A   Overcast
6:58 AM 44.4 °F 39.0 °F 41.2 °F 88% 30.26 in 10.0 mi NE 10.4 mph - N/A   Overcast
7:58 AM 45.1 °F 40.3 °F 40.6 °F 84% 30.25 in 10.0 mi NE 9.2 mph - N/A   Overcast
8:13 AM 44.6 °F 39.7 °F 41.0 °F 87% 30.24 in 10.0 mi NE 9.2 mph - N/A   Light Drizzle
8:24 AM 46.4 °F 42.4 °F 41.0 °F 81% 30.25 in 10.0 mi NE 8.1 mph - N/A   Overcast
8:42 AM 46.4 °F 41.5 °F 41.0 °F 81% 30.24 in 10.0 mi NE 10.4 mph - N/A Rain Light Rain
8:52 AM 46.4 °F 41.5 °F 41.0 °F 81% 30.24 in 10.0 mi NE 10.4 mph - N/A Rain Light Rain
8:58 AM 46.2 °F 42.2 °F 41.2 °F 83% 30.25 in 10.0 mi NE 8.1 mph - 0.00 in Rain Light Rain
9:58 AM 46.6 °F - 43.0 °F 87% 30.26 in 9.0 mi NE 8.1 mph - 0.01 in Rain Light Rain
10:58 AM 46.4 °F 41.5 °F 44.6 °F 93% 30.22 in 9.0 mi ENE 10.4 mph - 0.03 in Rain Light Rain
11:25 AM 46.4 °F 40.7 °F 42.8 °F 87% 30.18 in 10.0 mi NE 12.7 mph - N/A   Overcast
11:58 AM 45.9 °F 41.2 °F 43.5 °F 92% 30.16 in 10.0 mi NE 9.2 mph - 0.00 in   Overcast
12:23 PM 46.4 °F 41.5 °F 44.6 °F 93% 30.13 in 10.0 mi NE 10.4 mph - N/A   Overcast
12:28 PM 46.4 °F 41.5 °F 44.6 °F 93% 30.13 in 10.0 mi ENE 10.4 mph - N/A   Overcast
12:58 PM 46.9 °F - 44.1 °F 90% 30.12 in 10.0 mi ENE 10.4 mph - N/A   Overcast
1:12 PM 46.4 °F 42.4 °F 42.8 °F 87% 30.12 in 10.0 mi NE 8.1 mph - N/A Rain Light Rain
1:37 PM 46.4 °F 41.5 °F 44.6 °F 93% 30.08 in 10.0 mi NE 10.4 mph - N/A   Overcast
1:58 PM 46.8 °F - 44.1 °F 90% 30.07 in 10.0 mi ENE 12.7 mph - 0.00 in   Overcast
2:22 PM 46.4 °F 41.5 °F 44.6 °F 93% 30.05 in 10.0 mi ENE 10.4 mph - N/A Rain Light Rain
2:42 PM 46.4 °F 41.5 °F 44.6 °F 93% 30.05 in 10.0 mi ENE 10.4 mph - N/A   Overcast
2:47 PM 46.4 °F 41.1 °F 44.6 °F 93% 30.05 in 10.0 mi ENE 11.5 mph - N/A Rain Light Rain
2:58 PM 46.9 °F - 44.4 °F 91% 30.06 in 10.0 mi ENE 11.5 mph - 0.01 in Rain Light Rain
3:38 PM 46.4 °F 40.7 °F 44.6 °F 93% 30.02 in 10.0 mi ENE 12.7 mph - N/A   Overcast
3:50 PM 46.4 °F 40.7 °F 44.6 °F 93% 30.02 in 10.0 mi ENE 12.7 mph - N/A Rain Light Rain
3:58 PM 46.8 °F - 44.8 °F 93% 30.02 in 10.0 mi ENE 15.0 mph 20.7 mph 0.01 in Rain Light Rain
4:05 PM 46.4 °F 40.7 °F 44.6 °F 93% 30.00 in 10.0 mi ENE 12.7 mph 20.7 mph N/A   Overcast
4:19 PM 46.4 °F 40.4 °F 44.6 °F 93% 30.00 in 10.0 mi ENE 13.8 mph - N/A Rain Light Rain
4:39 PM 46.4 °F 40.7 °F 44.6 °F 93% 30.00 in 2.5 mi East 12.7 mph - N/A Rain Light Rain
4:44 PM 46.4 °F 41.1 °F 44.6 °F 93% 29.99 in 3.0 mi ENE 11.5 mph - N/A Rain Rain
4:49 PM 46.4 °F 40.4 °F 44.6 °F 93% 29.99 in 3.0 mi East 13.8 mph - N/A Rain Light Rain
4:58 PM 46.6 °F - 45.0 °F 94% 30.00 in 5.0 mi East 11.5 mph - 0.10 in Rain Light Rain
5:18 PM 46.4 °F 41.1 °F 44.6 °F 93% 29.98 in 10.0 mi ENE 11.5 mph - N/A Rain Light Rain
5:23 PM 46.4 °F 41.1 °F 44.6 °F 93% 29.98 in 10.0 mi ENE 11.5 mph - N/A Rain Light Rain
5:28 PM 46.4 °F 40.7 °F 46.4 °F 100% 29.99 in 8.0 mi ENE 12.7 mph - N/A Rain Light Rain
5:43 PM 46.4 °F 41.5 °F 46.4 °F 100% 29.99 in 6.0 mi ENE 10.4 mph - N/A Rain Light Rain
5:58 PM 46.9 °F - 45.9 °F 96% 30.00 in 6.0 mi ENE 10.4 mph - 0.07 in Rain Light Rain
6:33 PM 48.2 °F - 46.4 °F 93% 29.98 in 8.0 mi ENE 12.7 mph - N/A Rain Light Rain
6:58 PM 47.5 °F - 46.8 °F 97% 29.99 in 4.0 mi ENE 11.5 mph - 0.19 in Rain Rain
7:03 PM 48.2 °F - 46.4 °F 93% 29.98 in 1.8 mi ENE 11.5 mph - N/A Rain Heavy Rain
7:13 PM 48.2 °F - 46.4 °F 93% 29.98 in 2.5 mi ENE 10.4 mph - N/A Rain Rain
7:23 PM 48.2 °F - 46.4 °F 93% 29.97 in 2.0 mi ENE 11.5 mph - N/A Rain Rain
7:38 PM 48.2 °F - 46.4 °F 93% 29.97 in 3.0 mi NE 8.1 mph - N/A Rain Rain
7:48 PM 48.2 °F - 46.4 °F 93% 29.95 in 2.5 mi ENE 10.4 mph - N/A Rain Heavy Rain
7:53 PM 48.2 °F - 46.4 °F 93% 29.94 in 3.0 mi ENE 11.5 mph - N/A Rain Rain
7:58 PM 48.0 °F - 47.3 °F 97% 29.95 in 3.0 mi ENE 11.5 mph - 0.58 in Rain Rain
8:13 PM 48.2 °F - 48.2 °F 100% 29.95 in 2.0 mi NE 10.4 mph - N/A Rain Heavy Rain
8:18 PM 48.2 °F - 48.2 °F 100% 29.94 in 1.8 mi NE 10.4 mph - N/A Rain Heavy Rain
8:23 PM 48.2 °F - 48.2 °F 100% 29.93 in 2.5 mi ENE 11.5 mph - N/A Rain Heavy Rain
8:28 PM 48.2 °F - 48.2 °F 100% 29.93 in 2.5 mi ENE 11.5 mph - N/A Rain Heavy Rain
8:38 PM 48.2 °F - 48.2 °F 100% 29.95 in 3.0 mi SSW 5.8 mph - N/A Rain Light Rain
8:43 PM 48.2 °F - 48.2 °F 100% 29.95 in 5.0 mi Variable 1.2 mph - N/A Rain Rain
8:48 PM 48.2 °F - 48.2 °F 100% 29.96 in 4.0 mi Variable 3.5 mph - N/A Rain Light Rain
8:58 PM 48.9 °F - 48.4 °F 98% 29.96 in 10.0 mi SE 3.5 mph - 0.47 in Rain Light Rain
8:59 PM 48.2 °F - 48.2 °F 100% 29.96 in 10.0 mi Variable 3.5 mph - N/A Rain Light Rain
9:09 PM 50.0 °F - 48.2 °F 94% 29.96 in 2.0 mi West 3.5 mph - N/A Rain Heavy Rain
9:14 PM 48.2 °F - 48.2 °F 100% 29.96 in 1.5 mi NNW 1.2 mph - N/A Rain Heavy Rain
9:19 PM 48.2 °F - 48.2 °F 100% 29.96 in 1.8 mi NW 1.2 mph - N/A Rain Heavy Rain
9:24 PM 48.2 °F - 48.2 °F 100% 29.96 in 2.0 mi NNE 1.2 mph - N/A Rain Heavy Rain
9:26 PM 48.2 °F - 48.2 °F 100% 29.96 in 2.0 mi NNE 1.2 mph - N/A Rain Heavy Rain
9:36 PM 48.2 °F - 48.2 °F 100% 29.95 in 2.5 mi NE 4.6 mph - N/A Rain Rain
9:41 PM 48.2 °F - 48.2 °F 100% 29.95 in 2.5 mi NNE 2.3 mph - N/A Rain Heavy Rain
9:51 PM 50.0 °F - 48.2 °F 94% 29.94 in 3.0 mi ENE 4.6 mph - N/A Rain Rain
9:56 PM 50.0 °F - 50.0 °F 100% 29.94 in 4.0 mi East 3.5 mph - N/A Rain Light Rain
9:58 PM 49.5 °F - 48.9 °F 98% 29.95 in 4.0 mi East 2.3 mph - 0.42 in Rain Light Rain
10:03 PM 50.0 °F - 50.0 °F 100% 29.94 in 5.0 mi NNE 1.2 mph - N/A Rain Light Rain
10:48 PM 50.0 °F - 50.0 °F 100% 29.91 in 10.0 mi ENE 6.9 mph - N/A Rain Light Rain
10:50 PM 50.0 °F - 50.0 °F 100% 29.91 in 10.0 mi ENE 8.1 mph - N/A   Overcast
10:55 PM 50.0 °F - 50.0 °F 100% 29.90 in 10.0 mi ENE 6.9 mph - N/A   Overcast
10:58 PM 50.0 °F - 50.0 °F 100% 29.91 in 10.0 mi ENE 6.9 mph - 0.14 in   Overcast
10:59 PM 50.0 °F - 50.0 °F 100% 29.90 in 10.0 mi ENE 6.9 mph - N/A Rain Light Rain
11:10 PM 51.8 °F - 50.0 °F 94% 29.89 in 10.0 mi ENE 5.8 mph - N/A   Overcast
11:21 PM 51.8 °F - 50.0 °F 94% 29.89 in 9.0 mi ENE 5.8 mph - N/A Rain Light Rain
11:22 PM 51.8 °F - 50.0 °F 94% 29.89 in 9.0 mi ENE 5.8 mph - N/A Rain Light Rain
11:42 PM 51.8 °F - 51.8 °F 100% 29.88 in 5.0 mi ENE 6.9 mph - N/A   Light Drizzle
11:52 PM 51.8 °F - 51.8 °F 100% 29.87 in 6.0 mi East 9.2 mph - N/A Rain Light Rain
11:58 PM 51.4 °F - 51.3 °F 99% 29.87 in 7.0 mi East 9.2 mph - 0.02 in   Light Drizzle